Temp
28 26 26 26 26 26 26 26 26 27 26 24 22 21 20 21 21 21 21 21 23 22 22 22 21 20 20 20 20 19 19 19 19 20 20 20 20 20 20 20 20 20 20 20 20 19 19 18 18 18 18 18 17 17 17 17 17 17 17 17 17 17 17 18 18 18 18 18 18 18 18 17 17 17 17 17 17 16 16 16 16 16 16 16 16 16
27 26 26 27 28 28 27 26 27 27 26 23 22 22 21 21 21 21 22 21 23 22 21 21 21 20 20 19 20 20 20 20 20 20 20 20 20 20 20 20 20 20 20 20 20 19 19 19 18 18 18 18 18 17 17 17 17 17 17 17 17 17 17 17 17 17 17 17 17 17 17 17 17 17 17 17 16 16 16 16 16 16 16 16 16 16
26 26 26 27 28 27 26 26 26 26 26 23 22 22 21 21 21 21 21 22 22 22 21 21 21 20 20 20 20 20 20 20 20 20 20 20 20 19 20 20 20 20 20 20 20 20 19 19 19 18 18 18 18 17 17 17 17 17 17 17 17 17 17 17 17 17 17 16 16 16 16 17 16 16 16 16 16 16 16 15 15 15 15 16 16 16
24 25 26 27 27 27 26 26 26 26 26 25 23 22 21 21 21 20 21 21 22 22 21 21 21 20 20 20 20 20 20 20 20 20 20 20 20 20 20 20 20 20 20 19 19 20 19 19 19 18 18 18 18 18 17 17 17 17 17 17 17 17 17 17 16 16 16 16 16 16 16 16 16 16 16 16 16 16 16 15 15 15 15 16 16 16
24 25 26 26 26 27 26 25 26 25 25 25 25 23 21 22 22 21 21 22 22 22 22 22 21 20 21 20 20 20 20 20 20 20 20 20 20 20 20 20 20 20 20 19 19 20 19 19 18 18 18 18 18 18 17 17 17 17 17 17 17 17 17 16 16 16 16 16 16 16 16 16 16 16 16 16 16 16 16 15 15 15 15 15 15 16
26 25 25 26 26 26 26 26 26 25 24 23 24 24 23 23 23 22 21 22 20 20 21 22 20 20 21 21 21 21 20 20 20 20 20 20 20 20 20 20 21 21 20 20 20 20 20 19 18 18 18 18 18 18 17 17 17 17 17 17 17 17 17 16 16 16 16 16 16 16 16 16 16 16 16 16 16 16 16 15 15 15 15 15 15 15
26 25 26 26 26 26 26 26 25 26 24 22 23 25 24 24 23 22 22 22 20 20 21 22 20 20 20 21 21 21 21 21 21 20 21 21 20 20 21 21 21 21 21 20 20 20 20 19 19 18 18 18 18 18 17 17 17 17 17 17 17 17 17 16 16 16 16 16 16 16 16 16 16 16 16 15 15 15 16 15 15 15 15 15 15 15
26 26 25 26 26 26 26 25 25 26 24 22 23 25 24 24 23 22 22 22 22 21 21 22 21 20 20 21 22 21 21 21 21 21 21 21 21 21 21 21 21 21 21 21 20 20 20 19 19 19 18 18 18 17 17 17 17 17 17 17 17 17 17 16 16 16 16 16 16 16 16 16 16 16 16 16 16 15 15 15 15 15 15 15 15 15
26 25 25 26 26 26 25 24 25 26 24 22 24 25 24 24 23 23 23 22 22 22 20 21 22 21 20 21 22 21 21 21 21 21 21 21 22 21 21 21 21 21 22 21 21 20 20 19 19 19 19 18 18 17 17 17 17 17 17 17 17 17 17 16 16 16 16 16 16 16 16 16 16 16 16 16 16 15 15 15 15 15 15 15 15 15
25 25 25 26 26 25 24 24 25 25 24 23 24 25 24 24 23 23 23 22 22 21 20 21 21 21 20 21 21 21 20 21 22 22 22 22 22 22 21 21 22 22 22 22 22 20 19 19 19 19 19 18 18 17 17 17 17 17 17 17 17 17 17 17 16 16 16 16 16 16 16 16 16 16 16 16 16 16 16 16 15 15 15 15 15 15
25 25 25 25 25 25 24 24 25 25 24 24 24 24 23 23 24 23 23 22 21 20 21 21 22 21 20 20 21 21 21 22 23 23 22 22 22 22 22 21 22 22 22 22 22 21 20 19 19 19 18 18 18 17 17 17 17 17 17 17 17 17 17 17 17 17 16 16 16 16 16 16 16 16 16 16 16 16 16 16 15 15 15 15 15 15
26 25 25 24 24 25 25 24 24 25 24 24 24 24 22 22 22 22 22 22 20 20 21 22 22 21 20 21 22 23 23 24 24 23 23 23 22 22 22 22 22 22 22 22 22 21 20 19 19 19 18 18 18 18 17 17 17 17 17 17 17 17 17 17 17 17 16 16 16 16 16 16 16 16 16 16 16 16 16 15 15 15 15 15 15 14
25 25 24 24 24 25 25 24 23 24 25 25 24 22 21 20 20 20 20 20 20 20 21 22 22 21 20 22 24 24 24 24 24 24 24 23 23 22 22 22 22 22 22 22 22 22 21 20 19 19 19 18 18 18 18 18 18 18 17 17 18 18 17 17 17 17 16 16 16 16 16 16 16 16 16 16 16 16 15 15 15 15 15 15 15 14
23 24 25 24 24 25 26 24 22 23 24 24 23 22 21 20 20 20 20 20 20 20 21 22 22 21 21 23 24 24 24 24 24 24 24 24 23 22 22 22 22 22 22 22 22 22 21 20 20 19 19 19 19 18 18 18 18 18 18 18 18 18 17 17 17 17 17 16 16 16 16 16 16 16 16 15 15 15 15 15 15 15 15 15 14 14
21 22 24 25 24 25 26 25 24 24 25 25 26 24 22 21 20 20 20 20 20 20 21 21 21 21 21 22 23 24 25 25 24 24 24 24 23 23 23 23 23 22 22 22 22 22 22 20 20 20 19 19 19 19 18 18 18 18 18 18 18 18 18 17 17 17 17 17 16 16 16 16 16 16 16 16 15 15 15 15 15 15 14 14 14 14
21 21 25 25 25 26 25 25 26 26 24 25 26 24 22 22 22 21 20 21 20 21 21 21 21 22 22 23 23 23 24 24 24 24 24 23 23 23 23 23 22 22 22 22 22 22 21 21 20 20 20 20 20 19 19 19 18 18 18 18 18 18 18 17 17 17 17 17 16 16 16 16 16 16 16 16 15 15 15 15 15 15 14 14 14 14
21 22 25 25 25 26 25 25 26 25 24 24 24 23 23 25 24 21 20 20 20 20 21 21 21 22 23 23 23 23 23 24 24 24 24 23 23 23 22 22 22 22 22 22 22 22 22 21 20 20 20 20 20 20 19 19 19 18 18 18 18 18 18 17 17 17 17 17 17 16 16 16 16 16 15 15 15 15 15 15 15 15 14 14 14 14
23 22 24 26 25 25 25 25 26 25 25 24 22 23 25 25 24 22 20 20 20 20 21 21 21 21 21 21 22 23 23 23 23 23 23 23 23 22 22 22 22 22 22 22 22 22 22 21 21 20 20 20 20 20 20 19 19 19 18 18 18 18 18 18 18 17 17 17 17 17 16 16 16 16 15 15 15 15 15 15 15 15 14 14 14 14
25 22 23 26 25 24 25 25 24 25 26 25 24 25 25 22 22 22 21 20 20 20 21 21 21 21 21 21 22 23 23 23 23 23 23 23 23 23 22 22 22 22 22 22 21 22 22 22 21 21 21 21 21 20 20 20 19 19 18 18 18 18 18 17 17 17 17 17 17 17 16 16 16 16 16 16 15 15 15 15 15 15 14 14 14 14
26 23 22 25 26 25 25 24 23 23 25 25 25 26 25 22 22 22 21 21 21 20 21 21 21 21 22 23 23 23 24 23 23 23 23 23 23 23 23 23 23 22 22 22 21 22 23 22 21 21 21 21 21 21 21 20 20 19 19 18 18 18 17 17 17 17 17 17 17 17 17 16 16 16 16 16 15 15 15 15 15 15 14 14 14 14
26 24 21 23 25 24 24 24 24 24 25 24 23 23 23 23 23 22 22 22 21 21 20 21 21 21 23 25 25 25 24 24 24 24 24 24 23 23 23 23 23 23 22 22 22 22 23 22 22 22 21 21 22 21 21 20 20 19 19 18 18 18 18 18 18 17 17 17 17 17 17 16 16 16 16 16 15 15 15 15 15 15 14 14 14 14
26 25 22 22 23 22 23 25 25 25 25 25 24 24 24 23 22 21 21 22 22 21 21 21 20 21 23 25 25 25 25 25 24 24 24 24 24 24 24 23 23 23 23 22 22 23 23 22 22 22 22 22 22 21 21 20 20 20 19 19 18 18 18 18 18 18 18 17 17 17 17 17 16 16 16 16 16 15 15 15 15 15 15 15 15 14
24 25 23 22 23 24 24 25 24 24 25 25 25 25 25 24 22 21 20 21 21 21 21 21 20 21 23 24 24 25 25 25 25 24 24 24 24 24 24 24 23 23 23 22 22 23 22 22 22 22 22 22 22 21 21 20 20 20 19 19 18 18 18 18 18 18 18 17 17 17 17 17 17 16 16 16 16 16 16 15 15 15 15 15 15 15
23 25 23 21 24 25 25 24 24 24 25 25 25 25 25 24 23 22 22 22 21 21 21 21 20 21 23 23 24 24 24 25 25 25 24 24 24 24 24 24 23 23 23 22 23 23 22 22 22 22 22 22 22 22 21 20 20 20 19 19 19 19 18 18 18 18 18 18 17 17 17 17 17 17 16 16 16 16 16 15 15 15 15 15 15 15
24 24 23 21 22 22 22 23 23 23 24 24 24 24 24 24 23 23 23 22 21 21 21 21 20 21 23 24 24 24 24 24 24 24 24 24 24 24 24 24 23 22 22 22 22 22 22 22 22 22 22 22 22 22 21 20 20 20 19 19 19 19 19 18 18 18 18 18 17 17 17 17 17 17 17 16 16 16 16 16 15 15 15 15 15 15
24 24 24 21 21 21 21 21 21 22 24 24 24 23 23 23 23 22 22 22 21 21 21 21 21 22 23 24 24 24 24 24 23 24 24 24 24 24 24 23 23 22 22 22 22 22 22 22 22 22 22 22 22 22 21 21 20 20 20 19 19 19 19 19 18 18 18 18 18 18 17 17 17 17 17 17 16 16 16 16 16 16 16 16 16 15
25 24 24 22 22 21 21 22 22 23 23 23 23 23 23 23 23 23 22 21 21 21 21 21 22 22 23 24 24 24 24 24 23 24 24 24 24 23 23 23 22 22 22 22 22 22 22 22 22 22 22 22 22 21 21 21 21 21 20 20 19 19 19 19 18 18 18 18 18 18 18 18 17 17 17 17 16 16 16 16 16 16 16 16 16 16
25 23 22 23 22 22 23 23 23 23 23 23 23 23 23 23 23 22 22 21 22 21 20 22 22 21 22 24 24 23 24 24 24 24 24 24 24 23 23 22 22 22 22 22 22 22 22 22 22 22 22 21 21 20 20 20 20 20 20 20 20 19 19 18 18 18 18 18 18 18 18 18 17 17 17 17 16 16 16 16 16 16 16 16 16 16
25 23 22 23 22 22 23 23 23 23 24 24 24 23 23 23 23 22 22 22 22 21 21 22 22 22 23 24 24 24 24 24 24 24 24 24 24 23 23 23 23 23 23 23 22 22 22 22 22 22 21 21 20 20 20 20 20 20 20 19 20 19 18 18 18 18 18 18 18 18 18 18 18 17 17 17 17 16 16 16 16 16 16 16 16 16
25 23 22 23 23 22 23 23 23 24 24 24 24 24 24 23 23 23 22 22 22 22 22 22 22 23 24 25 24 24 24 24 24 24 24 24 24 24 24 24 24 24 23 23 23 23 23 23 23 22 21 20 20 20 20 21 21 21 20 20 20 19 19 18 18 18 18 18 18 18 18 18 18 17 17 17 17 17 17 17 17 16 16 16 16 16
23 22 22 24 23 22 23 23 23 24 24 23 23 24 24 23 23 23 23 22 22 22 22 22 22 23 24 24 24 23 23 24 24 24 24 24 24 24 24 24 24 24 24 24 23 23 22 23 22 21 21 21 20 20 21 21 21 20 20 20 19 19 19 19 18 18 18 18 18 18 18 18 18 18 17 17 17 17 17 17 17 16 16 16 16 15
25 22 22 23 22 21 23 23 23 24 24 23 23 23 24 23 23 23 23 23 23 22 22 22 22 23 24 24 23 23 23 24 24 24 24 24 24 24 23 24 24 24 24 24 23 23 22 22 22 21 21 21 21 21 21 20 20 20 19 19 19 19 19 19 18 18 18 18 18 18 18 18 18 18 18 18 17 17 17 17 16 16 16 15 15 14
26 24 23 23 21 21 22 23 23 23 22 21 22 23 24 24 24 23 23 23 23 23 22 22 23 24 24 24 24 23 23 24 24 24 24 23 23 23 23 23 23 23 23 22 22 22 22 22 22 21 21 21 21 21 20 20 19 19 19 19 19 19 19 18 18 18 18 18 18 18 18 18 18 18 18 17 17 17 16 16 16 16 15 15 14 14
25 25 24 24 22 21 22 23 23 22 21 21 22 23 24 24 24 23 24 24 23 24 23 24 24 24 24 24 24 24 24 24 24 23 23 23 23 23 23 23 23 23 22 21 21 22 22 22 21 21 20 20 20 20 19 19 19 18 19 19 19 19 19 19 19 18 18 18 18 18 18 18 18 18 17 17 16 16 16 16 15 15 14 14 14 13
25 25 24 24 22 21 22 22 21 20 21 22 23 22 22 23 23 23 24 24 24 24 24 24 24 24 24 24 24 24 24 24 23 23 23 22 22 23 23 22 22 22 22 21 21 21 21 21 21 20 20 20 19 19 19 19 19 19 19 19 19 19 19 19 19 18 18 18 18 18 18 18 17 17 17 16 16 16 15 15 15 14 14 13 13 13
25 25 24 23 22 22 21 21 20 21 23 23 22 20 20 21 22 22 23 24 25 24 24 24 24 24 24 24 24 24 23 23 23 23 23 22 22 23 23 22 22 22 22 22 21 21 21 21 20 20 20 20 20 20 20 19 19 19 19 19 19 19 19 19 18 19 19 18 18 18 17 17 17 16 16 16 15 15 15 14 14 13 13 13 13 13
25 25 24 22 22 22 21 21 21 22 23 23 22 22 22 23 23 23 22 24 25 25 24 24 24 24 24 23 23 23 23 23 23 23 23 22 22 22 23 23 22 22 22 22 21 21 20 20 20 20 20 20 20 20 20 19 19 19 19 19 19 19 19 19 19 19 18 18 17 17 17 16 16 16 15 15 15 15 14 13 13 13 13 12 12 13
25 25 25 22 21 22 21 21 21 21 21 22 23 23 23 23 24 24 23 23 25 25 25 25 24 24 23 23 23 23 23 23 24 23 23 22 22 22 23 23 23 23 22 22 21 21 20 20 20 20 19 20 20 19 19 19 19 19 19 19 19 19 19 19 19 18 18 17 17 17 16 16 15 15 15 15 14 14 13 13 13 13 12 12 12 12
24 25 25 23 21 21 21 20 21 20 21 23 24 23 23 22 23 24 22 22 24 25 25 25 24 24 24 23 23 23 23 23 24 24 23 22 22 23 23 23 23 23 22 22 21 21 20 19 19 19 19 19 19 18 18 18 18 19 19 19 19 19 19 18 18 17 17 16 16 16 15 15 14 14 14 14 13 13 12 12 12 12 12 12 12 12
24 25 25 23 21 21 21 21 21 21 22 24 23 23 23 22 23 23 21 21 24 25 24 24 24 24 24 23 23 23 23 24 24 24 23 23 23 23 23 23 23 23 22 22 21 20 20 19 19 20 20 19 18 18 18 18 18 19 19 19 19 18 18 17 17 17 16 16 15 15 15 14 13 13 13 13 12 12 12 12 12 11 11 11 11 11
24 24 23 22 22 21 21 21 21 22 23 24 23 23 23 22 22 21 21 22 25 24 23 24 24 24 23 23 23 24 24 23 23 22 22 23 23 22 23 23 22 22 22 21 20 19 20 20 20 20 19 18 18 18 18 18 18 18 18 18 18 17 17 16 16 16 15 15 15 15 14 13 13 12 12 12 12 11 12 11 11 11 11 11 10 10
22 23 22 22 22 22 22 21 21 22 23 22 22 22 22 22 22 22 23 24 25 24 23 23 23 23 23 23 24 24 24 22 22 22 22 22 22 23 23 22 22 22 21 20 19 19 20 20 19 19 19 18 17 18 18 18 18 18 18 17 17 16 16 16 15 15 15 15 15 14 13 13 12 11 11 11 11 11 11 11 10 10 10 10 10 10
23 22 21 22 22 22 21 21 20 22 22 22 21 21 21 22 23 24 25 24 24 24 23 23 23 23 23 23 24 24 23 22 22 22 22 22 22 23 22 22 22 21 20 20 20 19 19 19 19 18 18 17 17 17 17 17 18 18 17 16 16 15 15 15 15 15 14 14 14 13 13 12 12 11 11 11 10 10 11 10 10 10 10 10 10 10
25 23 22 23 24 22 21 21 22 23 23 22 23 24 23 24 25 25 25 24 24 24 24 24 23 23 23 24 24 23 23 23 22 22 22 22 22 22 22 22 21 21 21 20 19 18 18 19 19 18 17 17 16 17 17 17 17 17 16 15 15 15 15 14 14 14 14 13 13 13 12 12 12 11 11 10 10 10 10 10 10 10 10 9 9 9
24 24 23 24 25 24 23 23 24 24 24 23 24 24 24 24 23 23 24 25 25 24 24 25 24 23 23 24 24 23 23 23 22 22 22 22 22 22 22 22 21 20 20 20 19 18 18 18 18 17 17 16 15 16 16 17 16 15 15 14 14 14 14 14 14 14 13 13 13 12 12 12 12 11 10 10 10 10 10 9 9 9 9 9 9 8
24 23 22 24 25 24 24 24 24 24 23 23 24 23 23 23 23 22 23 25 25 24 24 25 25 24 23 23 23 23 23 23 22 22 22 22 23 23 22 21 21 20 20 20 18 17 17 17 17 16 16 15 15 15 15 15 15 14 14 14 14 14 14 14 14 13 13 13 12 12 11 11 11 11 10 10 10 10 10 9 9 9 9 8 8 7
24 22 23 24 24 23 23 24 24 24 24 24 24 24 23 22 23 22 23 24 24 24 24 24 24 24 23 23 23 23 23 23 23 23 22 22 23 22 22 21 21 20 19 19 17 16 17 17 16 16 15 15 15 15 15 14 14 14 14 14 14 14 14 13 13 13 12 12 12 11 11 10 10 10 10 10 9 10 9 9 8 8 8 7 6 6
24 22 23 25 24 24 24 25 24 24 24 24 24 24 24 24 23 23 23 23 23 22 23 23 23 23 23 23 23 23 23 23 23 23 23 23 23 23 22 21 20 19 18 17 16 16 17 17 16 16 15 15 14 14 14 14 14 14 14 14 14 14 13 13 12 12 12 12 11 11 11 10 10 10 10 10 9 9 9 8 8 7 7 6 5 4
22 22 24 25 24 24 25 25 24 24 24 24 24 24 24 24 24 23 23 22 22 22 22 22 22 23 23 23 23 23 23 23 23 23 23 23 23 22 22 20 20 18 17 17 16 17 17 16 16 15 15 14 14 14 14 14 13 13 13 13 13 13 13 12 12 12 12 11 11 10 10 10 10 10 10 9 9 9 8 8 7 6 6 5 4 2
22 24 25 24 23 24 25 25 25 24 24 25 25 24 24 24 23 23 22 22 22 22 22 22 21 21 22 22 23 23 23 23 23 23 23 23 23 22 21 20 19 18 17 17 16 16 16 15 15 15 14 14 14 14 14 13 13 13 13 13 13 13 13 13 13 12 12 11 10 10 10 10 10 9 9 9 9 8 8 7 7 6 5 4 3 2
24 25 25 24 24 25 25 26 25 24 25 25 24 24 23 23 22 22 22 22 22 22 23 22 21 21 21 21 22 22 23 23 22 22 23 23 22 21 20 19 19 18 17 17 16 16 15 15 15 14 14 14 14 14 13 13 13 13 12 12 12 12 12 12 12 12 11 11 10 9 9 9 9 9 9 9 8 8 8 7 7 6 5 4 3 2
Height
793 801 804 802 801 803 805 805 803 799 804 817 828 841 842 836 842 843 840 838 831 835 842 842 849 854 854 854 854 855 855 855 856 856 857 856 856 858 859 859 859 859 860 861 861 862 862 863 863 863 863 863 862 862 862 862 862 861 861 860 859 859 859 858 857 857 856 855 855 854 854 853 852 852 852 851 851 851 850 850 849 849 848 847 846 845
796 802 802 797 796 795 800 803 803 802 809 825 832 833 835 837 844 843 839 839 832 838 847 844 850 856 855 856 854 853 855 856 855 856 858 857 857 858 859 859 859 859 860 861 862 862 863 863 863 864 863 864 864 864 864 864 864 863 862 862 861 861 861 860 859 858 858 857 856 856 855 855 854 854 853 853 853 853 852 852 851 850 850 849 848 847
803 802 800 798 796 797 803 803 804 807 809 823 832 828 834 840 844 844 840 838 834 839 848 846 850 858 856 856 855 853 854 854 854 855 856 856 858 859 859 859 859 859 860 861 862 862 863 863 864 864 865 865 865 865 866 866 865 865 864 864 863 863 862 861 861 860 859 859 858 858 857 857 856 856 855 855 855 854 854 853 853 852 851 850 849 848
807 802 801 799 798 801 807 806 807 810 807 816 824 826 835 837 839 847 846 841 836 837 845 846 849 855 854 854 856 855 852 853 855 855 855 855 857 859 858 858 858 859 860 861 862 862 863 864 864 865 865 866 866 866 867 867 867 866 866 866 865 864 864 863 862 861 861 860 860 859 859 858 858 857 857 856 856 855 855 854 854 853 852 851 850 849
806 806 801 800 802 803 808 810 809 811 812 814 815 820 833 834 830 839 843 840 839 841 843 844 851 855 853 855 855 854 854 854 855 856 857 857 857 857 857 857 858 857 859 860 861 862 863 864 865 865 866 866 866 867 867 868 868 867 867 867 866 865 865 864 863 863 862 861 861 860 860 859 859 858 858 857 857 856 856 855 855 854 853 852 851 850
804 805 802 802 803 803 807 810 808 810 814 818 817 817 826 829 828 835 840 840 850 858 846 841 857 859 852 853 852 851 854 854 854 855 856 856 856 857 857 856 857 856 857 859 860 861 862 864 865 866 866 866 867 867 868 869 869 869 868 868 867 866 866 865 864 864 863 862 862 861 861 860 860 859 859 859 858 857 856 856 856 855 854 853 852 851
805 804 802 803 803 805 808 809 810 810 811 820 821 815 819 825 830 837 837 836 848 857 844 839 856 860 854 853 849 849 853 852 853 854 853 853 855 855 855 854 855 855 856 858 859 860 862 864 865 866 866 867 867 868 869 869 870 869 869 868 868 867 867 866 866 865 865 864 863 863 862 862 861 860 860 860 860 859 858 857 857 856 855 854 853 852
807 805 805 804 803 806 809 811 813 809 811 821 821 817 821 826 832 836 834 832 834 840 843 842 846 853 855 850 843 848 853 851 851 852 851 851 852 853 852 853 854 854 855 857 859 860 862 864 865 866 866 867 868 869 869 870 870 870 869 869 868 868 868 867 867 867 866 865 865 864 864 863 862 862 861 861 860 860 859 858 858 857 856 855 854 853
806 807 808 805 804 808 811 813 812 809 816 823 819 817 821 824 830 832 831 832 829 836 849 846 841 847 851 844 840 847 852 852 850 848 848 848 849 851 851 852 852 853 854 855 858 860 862 864 865 865 866 868 869 869 870 870 870 870 870 870 869 869 869 868 868 868 867 867 866 865 865 864 863 863 862 861 861 860 860 859 858 857 856 855 855 854
807 808 806 804 807 810 814 814 810 811 818 821 818 819 822 825 828 829 831 832 834 842 847 841 838 845 850 845 844 850 852 849 845 842 843 844 845 848 849 851 851 851 853 854 856 859 862 864 865 866 867 868 869 870 870 870 870 870 870 870 870 869 869 869 869 869 868 868 867 866 866 865 864 863 863 862 861 861 860 859 858 857 856 856 855 854
808 806 804 807 810 811 813 813 811 812 815 818 820 822 827 828 827 829 828 828 843 851 840 833 833 841 852 847 840 846 845 838 837 838 839 841 842 845 847 849 849 850 852 853 855 858 861 864 865 866 867 868 869 870 870 870 870 870 870 870 870 870 869 869 869 869 869 868 868 867 867 866 865 864 863 862 861 861 860 859 858 857 857 856 855 854
807 809 810 811 811 809 812 815 815 814 814 818 821 824 834 836 833 836 834 835 852 855 838 829 830 839 851 842 830 833 832 827 830 832 836 839 840 843 845 847 847 848 851 852 854 857 860 864 865 866 867 868 869 869 870 870 870 870 870 870 870 870 870 870 869 869 869 869 869 868 868 867 866 865 864 863 862 861 860 859 858 858 857 856 855 855
810 813 815 814 813 809 812 819 823 820 817 819 821 828 842 848 848 851 848 845 849 845 834 829 833 841 842 829 822 825 825 825 826 826 830 835 838 841 843 845 846 847 850 852 854 856 859 863 864 865 867 867 868 869 869 869 869 870 870 870 869 869 870 869 869 869 869 869 869 869 868 867 866 865 864 863 862 861 860 859 859 858 857 856 855 854
819 819 814 816 816 810 810 818 827 827 820 820 821 827 841 850 858 861 852 846 845 840 831 828 836 843 835 825 822 821 821 823 823 824 827 830 835 839 841 843 845 846 850 852 852 855 858 861 863 864 866 866 867 868 868 868 869 869 869 869 869 869 869 869 869 869 870 869 869 869 868 867 866 865 864 863 862 861 861 859 859 858 857 856 855 854
825 829 817 814 816 811 811 813 816 818 817 817 813 817 828 835 846 852 846 843 843 839 834 835 840 839 834 831 825 819 819 820 822 824 825 829 833 836 839 841 844 846 849 850 851 853 856 859 862 863 864 865 865 866 867 867 868 868 868 869 868 869 869 869 869 869 869 869 869 869 868 867 866 865 864 863 863 862 861 860 859 858 857 856 855 854
818 824 813 811 811 809 813 812 807 812 820 819 812 818 825 822 827 838 840 838 837 836 838 840 836 825 824 827 822 820 822 820 823 825 825 831 833 834 839 840 843 846 847 849 851 852 856 859 861 862 863 863 863 864 865 866 866 867 867 867 868 868 868 869 869 869 869 869 868 868 868 867 866 865 864 863 862 862 861 860 859 858 857 856 855 854
816 821 812 811 813 809 812 812 808 813 821 821 820 824 821 814 818 833 842 840 838 841 838 833 829 822 823 827 822 822 824 822 825 826 826 831 833 835 839 840 842 844 846 848 850 851 854 857 859 861 861 861 862 862 863 864 865 866 866 866 867 867 868 868 868 868 868 868 868 867 867 867 866 865 864 863 862 861 860 860 859 858 857 856 855 854
811 821 815 810 815 813 810 811 810 811 813 819 825 821 814 816 818 824 838 843 840 842 836 828 829 827 829 835 829 823 826 827 826 826 828 830 833 836 838 839 841 842 844 846 848 850 852 854 857 858 858 859 860 860 861 862 863 864 865 865 866 866 867 867 867 867 867 867 866 866 866 866 866 865 864 863 862 861 860 859 858 858 857 856 855 854
805 819 819 811 814 815 810 813 818 814 810 814 818 813 816 830 829 825 836 842 842 843 837 828 827 824 823 829 831 827 827 827 826 826 828 830 832 835 836 838 839 840 843 846 847 849 850 852 855 856 856 857 858 859 859 860 861 862 863 864 864 865 865 866 866 866 866 866 865 865 865 865 865 864 863 863 862 861 860 859 858 858 857 856 855 854
802 817 824 814 811 814 813 816 822 820 814 814 815 812 816 826 827 824 828 832 836 842 838 831 829 824 816 815 821 824 822 823 825 826 827 829 831 833 834 836 838 839 842 844 846 847 847 850 852 853 855 855 855 857 857 858 860 861 862 863 863 864 864 865 865 865 865 865 864 865 865 864 864 864 863 862 861 861 860 859 858 857 857 856 855 854
802 812 822 818 813 816 817 815 814 814 814 816 819 821 820 820 820 823 822 820 827 835 837 838 836 825 814 810 811 815 817 819 822 824 825 827 828 830 832 834 835 836 839 841 842 844 845 848 849 851 852 853 853 854 855 857 858 859 860 861 861 862 862 863 863 863 863 863 863 864 863 863 863 863 862 861 861 860 859 859 858 857 856 855 854 853
805 808 816 820 818 817 814 810 810 811 810 811 814 815 816 817 821 830 831 819 818 826 830 836 838 826 814 812 810 810 813 815 817 821 824 824 826 828 830 831 832 834 836 839 840 842 844 845 847 849 849 850 852 852 854 856 856 858 858 859 860 860 861 861 861 861 862 862 862 862 862 862 862 862 861 861 860 859 859 858 857 856 855 854 853 852
805 804 810 817 813 810 812 812 813 813 810 810 811 810 810 813 817 829 835 825 819 823 823 826 833 828 816 813 813 811 811 812 814 818 821 823 824 826 827 829 831 832 834 836 838 840 842 844 845 847 847 848 850 851 853 854 855 856 857 857 858 858 859 859 859 860 860 860 861 861 861 861 861 861 860 860 859 859 858 857 856 856 855 853 852 851
806 805 811 816 810 808 811 812 812 813 812 812 813 812 814 815 816 819 822 822 823 824 823 826 833 829 818 813 814 814 813 813 814 817 819 822 823 824 826 827 830 832 833 834 836 838 841 842 844 845 846 847 848 849 851 852 853 854 855 856 856 856 857 857 857 858 858 859 859 859 860 860 859 859 859 859 858 857 857 856 855 854 853 852 851 850
808 808 812 821 824 823 821 819 819 818 815 813 813 816 818 817 818 820 817 820 826 824 822 830 833 826 818 814 814 815 815 816 817 818 819 822 823 824 825 827 829 831 832 833 835 837 839 840 842 843 844 845 845 847 849 850 852 852 853 853 853 854 855 855 856 856 856 857 857 858 858 858 858 858 858 857 857 856 856 855 854 853 852 851 850 848
807 810 811 820 828 831 829 826 824 819 813 814 817 820 820 817 821 823 818 821 828 825 822 827 827 821 816 815 815 816 817 818 820 820 821 822 823 824 825 827 829 830 831 833 833 835 837 838 839 841 842 843 843 845 847 848 849 850 850 851 851 852 852 853 854 854 855 855 856 856 857 856 856 856 856 856 855 855 854 853 852 851 850 849 848 846
806 811 813 816 818 821 822 822 821 816 814 819 822 822 822 821 821 821 818 820 823 823 821 821 821 822 820 816 817 818 818 819 821 821 821 821 823 824 826 827 828 828 830 831 832 834 835 835 837 838 840 842 843 844 846 846 847 848 848 849 849 850 850 851 852 852 853 854 854 855 855 855 855 855 855 855 854 853 853 851 851 849 848 847 845 844
806 813 819 818 818 819 818 818 819 817 817 819 821 822 823 823 822 820 822 822 820 823 825 821 820 824 821 815 816 818 818 819 819 818 819 820 822 824 825 827 828 828 828 829 830 832 832 834 835 837 839 840 842 843 844 845 846 846 847 847 847 848 848 849 850 851 852 853 853 854 853 853 854 853 853 853 852 852 851 849 849 847 846 845 843 842
803 814 821 820 821 822 819 820 821 818 817 817 817 820 821 821 822 821 823 823 820 824 828 823 821 823 818 814 815 816 816 817 817 818 818 820 821 823 824 826 826 827 827 828 829 829 830 832 833 836 838 839 841 842 843 843 844 844 845 845 845 846 847 848 849 850 851 851 852 852 852 852 852 852 852 852 851 850 849 848 847 845 844 842 841 839
804 815 821 817 820 823 820 821 821 817 818 817 816 818 819 819 820 820 822 823 822 824 825 822 823 822 815 812 814 815 815 816 817 818 819 819 820 821 822 823 823 824 824 825 826 827 828 830 832 835 837 838 840 841 841 842 842 842 843 843 844 845 846 847 848 849 850 850 850 851 851 851 851 851 850 850 849 848 847 845 844 843 842 840 838 837
806 819 822 814 817 824 821 820 820 817 817 817 817 817 818 819 821 821 823 824 824 824 824 823 825 822 814 812 815 816 817 817 818 819 819 819 820 821 822 822 822 822 822 822 824 826 828 829 832 834 835 837 838 839 840 840 840 841 841 842 843 844 845 846 848 848 849 849 849 850 850 849 850 849 849 848 847 845 844 843 842 841 839 837 836 834
805 818 821 814 819 825 821 820 821 816 816 818 817 816 817 818 820 819 820 821 821 823 825 825 821 817 814 814 816 817 817 818 819 820 820 820 820 821 822 822 821 822 822 822 823 825 827 829 831 833 835 836 837 837 838 839 840 841 841 842 843 844 845 846 847 848 848 848 849 849 848 848 848 847 846 845 845 843 842 841 840 838 837 835 833 832
803 812 816 815 820 823 820 819 819 818 823 824 817 813 813 814 816 818 818 819 818 819 822 821 814 812 813 814 816 818 818 818 819 819 820 821 821 822 823 822 822 822 822 823 824 825 827 828 830 832 834 835 836 837 838 839 840 841 841 842 843 844 845 846 847 847 847 848 848 848 847 847 846 845 844 844 843 842 841 839 838 836 835 833 831 830
805 806 808 811 817 823 821 817 819 827 833 827 814 811 813 813 814 817 816 815 815 814 814 814 812 813 814 813 814 816 816 817 818 819 820 821 822 823 823 823 823 823 824 825 825 826 827 829 831 833 834 836 837 838 839 840 841 841 842 843 843 844 845 845 846 847 847 847 847 846 846 845 844 844 844 843 842 840 839 837 836 835 833 831 830 828
807 807 809 811 814 819 818 821 834 841 829 816 812 813 815 814 814 815 814 811 812 813 813 813 813 813 813 813 813 814 815 817 818 819 820 821 822 823 823 824 825 825 825 826 826 828 829 831 832 834 835 837 838 839 840 840 841 842 842 843 844 844 845 845 845 846 846 846 846 845 845 844 844 844 843 841 840 839 837 836 835 833 832 830 828 827
806 808 812 814 817 820 821 828 838 833 813 808 816 818 818 818 817 819 818 811 807 810 812 811 811 810 812 814 814 815 817 818 818 819 820 821 822 822 823 824 825 825 826 827 828 830 831 832 833 835 836 837 838 839 840 841 841 842 842 843 844 844 845 845 846 845 845 845 845 845 845 844 843 842 841 840 839 838 837 835 834 832 831 829 828 826
802 806 810 818 823 823 822 823 822 818 813 812 815 814 813 813 813 816 818 811 803 805 808 808 809 811 812 814 815 816 817 818 819 819 820 821 822 822 823 824 825 826 827 828 830 831 832 833 835 836 837 838 838 839 840 841 842 842 842 843 844 844 844 845 844 844 844 845 845 844 844 843 842 842 841 840 839 837 836 835 833 831 830 828 827 825
803 804 806 817 824 821 821 822 822 827 826 815 808 807 807 808 806 807 813 811 802 801 804 805 808 810 811 814 816 816 819 821 818 817 819 821 822 823 824 824 825 826 827 829 830 832 833 835 835 836 838 838 839 840 841 841 842 842 842 843 843 844 844 843 843 844 844 845 844 844 843 843 842 841 841 839 838 837 835 834 832 831 829 828 826 823
806 804 802 811 820 821 824 826 826 829 824 810 806 807 807 808 806 807 816 815 802 799 803 803 805 808 810 813 815 816 820 820 813 812 818 821 821 822 823 824 825 827 828 830 831 832 834 835 836 837 838 839 840 840 841 842 842 842 842 842 842 843 843 843 844 844 844 844 844 843 843 843 842 841 840 839 838 837 835 833 832 830 829 827 825 822
807 805 805 812 816 818 822 822 817 817 813 805 805 807 807 807 807 815 827 819 801 799 803 802 804 807 807 811 814 815 817 815 809 811 817 819 820 822 823 823 825 827 828 830 832 833 835 835 836 837 838 839 840 840 841 842 842 842 842 842 842 842 843 844 844 844 844 844 844 844 843 843 842 841 840 839 838 836 835 833 831 830 828 826 824 822
808 807 810 813 812 813 821 822 813 808 805 803 805 806 805 809 815 823 825 810 798 800 803 801 804 806 806 810 812 810 811 812 812 814 817 818 820 823 823 825 826 827 829 831 832 834 834 835 836 837 837 838 839 840 841 841 841 842 842 842 843 843 843 844 844 844 844 844 844 844 843 843 842 841 840 839 838 836 834 833 831 829 827 825 823 821
811 812 814 815 812 810 813 816 814 809 803 803 805 806 807 814 818 815 806 798 797 801 802 802 804 805 806 809 808 807 809 812 814 816 817 819 820 822 823 825 827 828 830 831 832 833 834 835 836 837 837 838 839 840 840 841 841 841 842 842 843 844 844 844 845 845 845 845 844 844 843 843 842 841 840 839 837 836 834 832 831 829 827 825 823 821
804 809 811 809 810 811 814 820 822 815 805 802 806 810 811 811 806 798 795 798 799 799 801 803 804 804 806 807 807 808 811 813 815 816 817 819 820 821 823 825 826 828 830 831 832 833 834 835 835 836 837 838 838 839 839 840 840 841 841 842 843 844 845 845 845 845 845 845 845 844 844 843 842 841 840 838 837 835 834 832 831 829 827 825 823 820
798 803 803 800 802 809 815 817 812 803 797 797 800 802 802 799 794 792 794 797 799 799 800 801 802 804 805 806 807 810 812 813 816 817 817 819 820 821 823 825 826 828 829 830 832 832 833 835 835 836 837 837 838 839 839 839 840 841 842 843 844 845 845 846 846 846 846 846 845 845 844 843 842 841 840 838 837 835 834 832 831 829 827 825 823 820
796 796 799 797 796 799 802 800 795 792 793 794 794 793 794 794 794 795 795 795 797 798 797 798 801 803 804 805 807 809 811 813 815 816 817 818 819 821 823 824 826 828 829 830 832 832 833 835 835 836 837 837 838 839 839 839 841 841 843 844 845 846 846 846 847 847 846 846 845 844 844 843 842 841 840 839 837 836 834 833 831 829 828 825 823 821
792 795 797 795 793 794 794 792 792 793 793 793 792 793 794 795 795 796 796 795 795 796 796 797 799 801 803 805 806 808 810 812 813 815 816 817 818 820 822 824 826 827 829 830 831 832 833 834 835 836 837 838 839 839 840 841 842 843 844 845 846 846 847 847 847 847 846 846 845 844 844 843 842 841 840 839 838 836 835 834 832 830 828 826 825 824
791 795 796 794 796 800 797 791 789 791 792 791 792 792 793 794 794 795 796 796 795 796 797 797 797 799 802 804 805 807 808 809 812 814 815 816 818 819 821 824 825 827 829 830 831 832 833 834 836 837 838 839 840 841 842 843 843 844 846 846 847 847 847 847 847 846 846 845 845 844 844 843 842 842 840 839 838 837 836 835 833 832 830 828 827 826
791 795 795 793 794 797 793 788 787 789 789 789 790 790 790 791 792 793 794 795 795 797 797 797 798 800 801 802 804 805 807 808 811 812 813 815 817 818 821 823 825 827 829 830 831 832 833 834 836 838 839 840 842 842 843 844 845 846 847 847 848 848 847 847 847 846 846 846 845 845 845 844 843 842 841 840 839 838 837 836 835 834 832 831 831 830
791 794 792 790 791 791 788 786 787 790 790 788 788 788 787 787 789 791 793 794 795 796 797 798 799 799 800 802 803 804 806 808 809 810 812 814 816 818 821 823 825 827 829 830 832 833 834 836 837 839 840 841 843 844 845 846 847 847 848 848 848 848 848 847 847 846 846 846 846 846 845 844 844 843 842 841 839 838 838 837 836 835 835 834 834 833
791 790 787 790 795 793 787 783 785 790 789 785 784 786 786 786 788 790 792 793 794 794 795 797 799 800 800 801 802 803 805 806 808 809 811 812 815 818 821 823 826 828 829 831 833 834 835 837 838 840 841 843 844 845 846 847 848 848 848 849 848 848 848 848 847 847 847 847 847 847 846 845 844 843 842 841 840 839 838 837 836 835 836 835 835 834
786 783 783 788 790 786 781 778 780 784 784 782 782 785 785 786 788 789 790 791 792 792 793 795 798 800 801 801 802 803 803 805 807 809 810 812 815 818 821 823 825 827 829 831 833 835 836 838 840 841 842 843 845 846 847 848 848 849 849 849 849 848 848 848 848 848 848 847 848 847 846 846 845 844 843 842 841 840 839 837 836 835 835 835 835 834
Wind_Speed
4 5 4 2 3 6 7 2 5 6 10 12 10 9 8 8 7 6 7 5 3 3 7 8 10 9 7 7 7 6 6 6 6 6 5 5 6 5 5 4 5 5 6 7 7 7 7 7 7 7 7 8 8 8 9 9 9 9 10 11 11 10 10 10 10 9 8 8 8 8 8 9 9 9 10 11 11 11 12 12 11 11 11 10 10 10
4 4 2 2 1 4 6 3 3 6 12 12 7 8 8 7 7 6 6 6 2 1 6 8 9 8 6 6 6 6 7 7 7 7 6 7 6 5 5 5 6 5 6 7 7 7 7 7 6 6 6 7 8 8 9 9 10 10 10 11 11 10 10 10 10 9 8 8 8 8 8 8 9 9 9 10 10 10 11 11 11 10 10 9 9 9
5 2 4 3 2 5 6 4 3 4 8 10 7 6 7 8 8 6 5 5 2 2 6 9 8 7 7 6 6 6 7 6 6 6 7 7 6 5 5 5 6 6 6 6 7 6 6 6 6 6 6 6 8 8 9 9 10 10 10 10 10 10 11 11 10 10 9 9 8 9 9 8 9 9 9 9 9 9 10 11 11 11 10 9 9 9
2 3 5 2 3 5 6 4 3 2 3 6 6 5 7 9 8 5 6 6 2 3 7 9 7 6 7 6 6 6 5 6 6 5 5 5 6 6 6 5 5 6 6 6 6 6 6 6 5 6 6 6 7 8 9 9 8 9 9 9 10 11 11 11 11 10 9 8 9 9 9 9 9 9 8 8 9 9 9 10 11 11 11 11 11 11
4 6 3 2 5 6 6 5 5 3 2 3 2 4 8 9 6 7 9 8 5 6 8 9 6 5 6 7 7 6 5 7 7 7 7 6 6 6 6 5 5 5 6 6 6 6 5 6 5 5 5 6 7 7 8 7 7 8 9 9 10 11 12 12 11 11 10 9 9 9 8 8 9 9 10 9 9 9 9 10 11 11 11 11 11 11
6 6 1 4 7 7 6 5 5 3 2 3 1 4 10 9 8 13 13 10 7 6 8 9 4 5 7 7 7 7 7 9 9 9 9 8 8 7 7 6 5 5 5 5 6 6 6 5 5 5 5 5 6 6 7 6 6 7 8 9 10 11 11 12 12 12 12 12 11 10 10 10 9 10 10 11 11 10 10 10 10 10 11 11 11 10
5 5 0 3 6 7 6 3 2 3 4 4 3 5 11 9 10 14 13 8 4 4 9 10 3 3 7 8 8 8 8 10 10 11 11 9 8 8 7 7 6 6 5 5 5 6 6 5 4 5 4 5 5 5 5 5 5 6 7 8 9 10 11 11 11 12 12 12 12 12 11 11 11 10 10 10 10 10 10 10 9 10 10 10 10 10
3 3 2 2 4 5 4 2 2 4 5 3 5 6 9 10 10 11 8 5 2 5 9 11 6 1 4 7 9 10 9 10 12 12 12 10 10 9 8 7 7 6 6 6 5 6 6 5 4 5 5 5 5 5 4 4 5 5 6 7 8 9 10 10 10 11 11 11 12 12 11 11 11 10 9 9 10 9 9 10 9 9 9 9 10 10
3 3 4 1 3 3 2 3 3 0 1 5 7 8 8 8 8 7 5 2 3 5 7 9 8 4 3 6 9 10 10 11 13 13 13 12 12 10 9 9 8 7 6 6 6 6 7 6 4 5 5 5 5 4 4 4 4 5 5 5 6 7 8 9 9 10 10 10 11 11 11 11 10 9 9 9 9 9 9 9 9 9 8 9 9 10
4 5 6 3 1 3 6 5 3 2 4 7 9 8 7 6 5 5 4 2 4 5 4 8 9 5 3 6 7 8 10 11 12 12 13 12 12 11 10 9 9 7 7 6 6 6 7 6 5 5 5 5 4 3 3 4 4 4 3 3 4 5 6 7 8 9 9 9 10 10 11 11 10 9 8 8 8 8 8 9 9 9 9 8 9 9
6 5 4 5 4 6 8 6 3 3 8 11 9 8 7 5 4 4 3 3 4 4 3 8 9 4 1 5 7 7 8 11 11 10 12 13 13 12 10 9 9 8 7 6 6 7 7 6 5 5 5 5 4 4 3 3 3 3 2 2 2 3 4 6 7 7 8 8 9 9 9 10 10 9 9 9 9 9 9 9 9 9 8 8 8 9
7 5 4 5 5 7 9 8 6 8 12 10 6 6 5 4 4 3 4 4 4 3 4 5 6 5 3 2 6 9 8 9 10 11 13 14 14 13 11 10 9 8 7 6 5 7 8 7 6 6 6 6 6 5 5 4 4 4 3 3 2 2 3 4 5 6 6 7 7 7 7 8 8 9 10 9 10 10 9 9 9 9 9 8 8 8
6 5 6 7 4 4 5 7 7 7 8 6 5 6 4 3 4 4 4 4 3 3 4 4 5 4 3 2 4 9 10 8 8 9 12 14 14 13 11 10 9 8 7 7 6 7 8 8 8 8 8 8 8 8 7 6 6 5 4 4 2 2 2 3 4 4 4 5 5 5 6 7 7 8 9 10 10 10 9 8 9 9 9 9 9 9
4 5 7 7 5 5 4 2 4 5 5 5 5 5 3 2 3 3 4 3 2 3 4 5 4 4 3 3 3 6 9 8 7 8 10 13 14 13 12 11 10 9 9 8 7 7 8 9 9 10 10 10 9 9 9 8 7 6 5 4 2 1 1 1 2 2 3 3 4 4 5 7 8 9 9 9 9 9 8 8 9 9 9 9 9 9
1 4 6 4 5 6 3 3 1 3 5 4 3 2 2 1 1 1 1 1 2 4 5 5 5 3 2 4 2 2 5 7 7 7 9 11 12 12 12 11 11 10 9 8 7 7 9 10 10 10 10 10 10 10 9 9 8 7 6 4 2 1 1 2 1 1 1 2 3 4 5 7 8 9 8 8 8 8 8 8 8 8 8 9 9 9
1 4 6 4 3 5 2 2 1 3 5 3 1 3 1 3 3 2 2 3 2 2 4 5 4 0 3 4 4 3 6 8 7 8 11 11 12 12 11 11 11 10 9 8 8 8 10 11 11 10 11 10 10 10 10 9 9 8 6 4 2 3 3 3 3 2 1 1 2 4 5 7 7 8 8 7 7 6 7 7 8 8 8 8 9 8
1 5 8 5 4 3 1 2 2 2 1 3 3 2 2 3 5 2 1 1 3 2 3 4 3 3 4 4 5 6 8 9 8 10 12 12 12 12 10 10 10 10 9 9 8 9 11 12 12 12 12 11 11 10 10 10 8 7 5 4 4 5 5 5 4 4 2 1 2 3 4 6 7 7 7 7 7 6 6 6 7 7 7 8 8 8
1 4 8 5 4 5 1 0 3 1 3 1 2 1 1 2 4 2 1 1 2 2 3 2 3 3 4 3 6 9 10 10 10 12 12 12 13 12 10 10 11 10 10 10 10 10 12 13 13 13 12 12 12 10 10 9 8 6 5 6 6 6 7 6 5 5 3 3 2 2 4 5 5 6 6 6 6 6 6 6 6 6 7 7 7 7
2 3 7 4 2 6 4 3 4 3 3 3 2 1 2 3 2 2 2 2 2 2 2 2 1 2 2 3 7 10 11 11 11 12 13 13 13 11 11 11 11 10 9 10 10 10 11 13 13 13 12 12 12 11 9 9 7 6 6 7 8 8 8 7 7 6 5 4 3 2 3 4 4 5 5 6 6 6 6 7 6 6 7 7 7 7
2 1 4 4 2 5 6 6 4 5 5 3 2 2 2 3 2 2 2 3 3 3 1 0 1 2 2 3 8 11 11 12 12 12 12 13 13 11 10 10 10 10 10 9 9 9 11 13 13 13 13 13 12 11 10 9 8 8 7 8 9 9 9 9 8 7 6 5 4 3 3 3 4 4 5 5 6 6 6 6 6 7 7 7 7 7
3 3 2 6 5 4 5 4 2 1 2 4 4 4 3 2 2 3 3 2 3 4 2 2 0 4 5 2 5 9 11 12 12 12 11 11 13 12 10 10 10 10 10 10 9 10 12 13 13 13 13 12 11 10 9 9 9 9 9 9 9 9 9 9 9 8 7 6 5 5 4 4 4 5 5 5 6 6 6 6 6 7 7 7 7 7
2 2 2 5 5 4 3 4 4 5 4 3 3 3 3 3 3 4 3 2 2 3 3 4 3 4 5 2 2 6 9 11 12 12 11 11 12 11 10 10 9 9 9 10 9 10 11 12 13 13 13 12 11 10 10 10 10 10 10 9 9 10 10 9 9 9 8 7 6 6 5 5 5 5 5 5 6 6 6 6 7 7 8 8 7 7
1 2 3 3 2 2 7 6 2 2 2 3 2 3 3 3 4 5 3 0 1 2 2 3 3 3 5 2 1 3 5 9 11 11 10 11 11 10 10 9 9 8 8 9 9 10 11 12 12 13 12 12 12 11 11 10 11 10 11 10 10 10 10 10 9 9 9 8 8 7 6 6 6 6 6 6 6 7 7 7 8 8 8 9 9 8
1 2 3 2 2 4 6 5 3 1 2 3 1 1 3 3 4 5 5 4 3 3 2 4 3 3 4 2 2 3 4 6 9 9 10 9 9 9 9 8 8 8 8 8 9 11 12 12 12 12 12 13 12 11 11 11 11 11 11 11 11 11 11 10 10 10 9 9 9 8 7 7 6 7 6 7 7 8 8 9 9 9 9 10 10 10
3 2 3 3 3 4 5 5 5 4 4 3 1 1 2 3 3 5 3 3 5 3 2 5 3 4 5 3 3 5 6 7 8 8 8 7 7 7 7 7 7 7 7 8 9 10 11 12 12 12 13 13 13 11 11 10 11 11 11 11 11 11 11 10 9 9 9 9 9 8 8 7 7 7 7 8 8 9 9 10 10 10 11 11 12 12
2 1 3 4 3 2 2 1 1 1 2 1 1 1 0 1 1 3 3 4 4 1 2 4 2 5 6 5 5 6 7 8 8 8 8 7 7 6 6 5 6 6 7 8 9 9 10 11 12 12 13 13 12 10 10 10 10 10 10 10 10 10 11 10 9 8 8 9 9 8 8 8 9 9 9 9 9 10 10 11 11 12 12 12 13 14
2 1 1 4 4 4 4 5 4 3 1 3 3 3 1 0 2 4 4 3 2 1 2 1 2 3 5 7 6 6 7 8 8 8 8 7 6 5 4 4 4 5 6 7 8 8 9 10 12 12 12 11 11 9 9 9 10 10 10 9 9 9 9 8 8 7 8 8 8 8 9 10 10 9 10 10 10 11 11 12 12 13 13 14 15 16
3 3 1 3 4 5 5 6 3 3 2 3 4 4 3 1 3 4 3 3 4 3 2 4 2 2 3 6 6 7 7 7 8 8 7 6 5 4 4 4 5 5 6 7 8 9 9 10 10 11 11 10 9 8 8 10 10 10 10 9 9 8 8 7 6 7 7 8 7 8 9 10 9 10 11 11 12 12 13 14 14 14 15 15 16 17
3 2 2 1 4 4 4 4 1 1 3 3 3 4 4 2 0 2 3 4 4 4 3 4 1 2 4 6 7 7 7 6 6 5 4 4 4 4 4 5 5 6 7 8 8 9 9 9 9 9 9 8 8 8 9 10 10 10 10 9 9 8 7 6 5 6 6 6 7 7 8 9 9 10 11 12 13 14 14 15 15 15 16 17 18 18
3 3 3 4 5 5 4 2 1 1 2 2 2 2 2 2 2 3 4 2 3 4 4 2 3 2 3 5 6 6 4 3 4 3 2 3 3 3 4 5 5 6 7 8 8 8 8 8 8 8 7 7 7 8 9 9 10 10 10 8 7 7 6 5 4 5 5 5 6 7 8 9 9 10 12 13 14 14 15 16 17 17 18 19 21 21
2 2 4 4 5 5 4 3 2 3 2 2 2 2 1 1 2 2 3 1 1 2 3 2 4 4 3 4 5 4 2 2 3 2 2 1 1 1 3 4 4 5 5 5 5 5 6 6 7 7 6 6 6 7 8 9 9 8 7 6 5 5 4 3 3 3 4 5 6 7 9 10 10 11 12 13 15 16 17 19 19 19 20 21 21 21
2 2 4 5 4 4 5 3 3 3 4 5 5 4 4 3 2 2 2 1 1 2 3 4 4 4 5 5 4 4 3 4 3 3 2 1 1 0 2 3 4 4 4 3 3 4 4 5 5 5 4 4 5 5 5 5 5 4 3 3 3 3 3 2 2 2 3 5 6 8 9 10 11 12 13 15 17 18 19 20 21 21 21 20 19 18
2 3 4 5 4 4 5 3 2 4 6 5 3 3 4 4 2 1 2 2 2 1 2 2 1 5 6 6 6 6 5 4 3 2 2 2 2 2 2 3 4 3 2 1 1 2 2 3 2 2 2 1 0 1 2 1 1 1 1 2 3 2 1 1 1 2 4 5 7 8 9 10 12 13 15 17 19 19 19 20 20 19 18 17 16 16
3 4 3 3 3 3 5 3 4 6 5 1 3 2 1 3 3 4 3 2 3 4 3 3 3 4 5 5 5 6 5 4 4 4 3 3 2 2 2 2 3 3 4 3 2 2 3 4 5 6 5 5 6 6 5 5 4 4 4 4 3 2 1 0 1 3 4 6 7 9 10 12 14 16 17 18 19 18 18 17 16 16 15 15 15 14
4 3 2 1 2 2 4 4 5 5 1 3 4 2 1 2 3 4 4 3 5 6 5 3 2 3 4 4 3 4 5 6 5 5 4 3 2 2 3 4 5 5 5 5 6 7 7 8 8 8 8 8 8 7 7 7 6 5 5 4 3 2 2 2 3 3 5 6 9 10 12 14 15 16 17 17 17 16 15 15 14 14 14 13 14 14
4 4 3 1 1 1 3 5 4 1 1 4 4 3 2 2 3 4 6 6 7 6 6 6 4 4 4 5 4 4 5 6 4 4 5 4 4 3 3 5 6 6 6 7 8 9 9 9 9 9 9 8 8 7 7 7 6 5 4 4 3 2 2 2 4 5 7 9 10 12 13 14 15 15 14 14 14 14 14 14 14 13 13 13 14 15
3 3 3 2 1 2 4 5 2 3 2 4 4 4 3 2 3 3 5 3 6 6 6 7 6 6 6 6 6 5 5 5 4 5 6 6 5 4 4 6 6 7 8 9 10 10 9 9 10 9 8 8 7 6 6 6 4 3 3 3 2 2 2 4 6 7 8 10 11 12 12 12 12 12 12 13 14 14 14 14 13 13 13 14 16 17
2 2 2 2 2 3 4 4 3 4 3 2 4 4 3 1 1 1 5 3 5 5 5 6 7 8 7 7 7 7 5 5 5 4 7 8 7 6 6 7 7 7 9 10 10 10 9 8 8 7 7 6 6 5 5 4 3 2 1 2 3 4 5 6 7 8 8 9 10 9 9 9 10 11 12 13 13 13 13 13 13 13 14 16 18 19
2 2 2 2 3 4 5 4 3 3 1 3 5 6 4 0 1 2 5 3 5 5 4 6 7 9 9 8 8 7 6 6 4 4 8 9 8 7 6 7 7 8 9 9 8 8 7 6 5 5 5 5 5 4 3 2 1 1 3 4 4 5 6 6 7 7 7 7 7 7 8 8 9 10 11 12 12 12 13 14 14 15 16 17 18 19
4 3 3 4 3 4 4 4 2 2 1 4 5 6 5 2 2 5 5 2 5 4 3 5 7 9 9 8 8 8 6 3 1 6 9 9 9 8 5 6 8 8 8 8 6 5 5 4 3 3 3 4 3 3 2 1 1 3 4 4 5 5 5 5 5 5 6 6 6 7 8 8 9 10 10 11 12 13 14 14 15 16 17 17 18 19
4 3 3 5 4 3 4 5 3 1 3 6 6 6 6 4 4 5 2 4 5 4 3 4 7 8 9 8 7 6 2 4 7 7 8 8 8 8 7 7 7 6 6 6 4 3 3 3 2 1 2 3 2 1 1 1 2 3 3 3 4 4 4 5 5 6 6 6 7 8 9 9 9 10 10 10 12 13 14 14 15 17 17 17 17 18
5 4 3 4 4 3 3 4 4 1 4 6 7 7 5 4 3 1 2 4 4 4 4 4 6 7 8 8 6 3 6 9 7 6 8 8 8 8 8 8 7 6 5 4 3 3 2 2 1 1 2 2 1 0 0 1 2 1 2 3 5 6 6 6 7 7 7 7 8 9 9 8 9 9 9 11 13 14 15 15 16 17 16 17 18 19
3 4 4 4 3 3 3 4 5 2 4 9 10 7 5 4 1 4 4 4 3 4 5 5 5 6 7 8 6 5 8 8 6 6 7 8 7 7 8 8 7 6 5 3 3 2 1 2 1 1 1 1 1 0 0 1 1 2 4 7 8 7 7 8 7 7 8 8 8 9 8 8 9 9 10 12 14 15 15 15 16 17 17 17 19 19
3 3 4 2 3 3 4 3 2 2 6 12 9 4 5 5 2 3 2 3 3 4 4 4 5 6 7 8 7 7 7 7 6 6 6 8 7 7 7 7 6 5 4 3 3 2 1 2 1 1 1 1 1 0 1 1 3 6 9 10 9 8 8 8 7 7 7 7 8 8 9 10 10 11 12 14 14 14 14 16 17 17 18 19 20 20
2 1 3 1 3 3 3 1 3 5 6 11 7 0 2 4 2 2 1 2 4 4 3 4 6 7 7 7 7 7 7 7 7 6 6 7 8 8 7 6 5 4 3 2 2 1 0 1 1 2 3 4 3 3 3 4 7 11 12 10 8 8 8 7 7 7 7 7 8 9 11 11 12 13 12 13 14 13 14 16 17 18 19 19 20 20
1 1 2 2 2 2 3 1 2 2 4 8 8 3 2 2 3 1 2 1 3 3 3 4 5 7 8 7 7 7 7 7 7 6 6 7 8 8 7 5 4 3 2 1 2 2 2 3 4 5 6 7 7 7 8 10 11 13 11 9 9 8 7 7 7 7 8 8 9 10 11 12 13 13 12 12 14 14 14 16 17 19 19 20 20 21
4 4 4 3 2 2 3 5 6 6 5 6 8 8 6 5 4 3 3 2 1 2 3 3 3 6 8 8 8 8 7 8 8 7 7 7 7 8 7 5 3 3 3 4 5 5 5 6 7 8 10 10 10 11 12 13 12 12 10 9 8 7 7 8 7 8 9 10 10 11 11 11 12 12 12 12 14 14 14 15 17 18 19 19 20 20
4 5 5 6 6 5 3 3 5 5 5 5 5 6 7 8 8 7 6 4 1 1 2 2 3 5 7 8 8 8 8 9 9 8 8 7 7 7 7 5 6 7 8 8 8 8 8 9 10 11 12 12 12 12 13 13 12 11 10 9 8 7 7 8 8 9 10 10 10 11 11 10 11 12 12 13 14 14 14 15 17 17 17 18 19 19
5 5 4 5 6 7 6 4 6 5 5 7 8 7 5 5 6 7 7 7 5 4 4 4 4 4 5 7 7 8 8 9 9 9 8 8 7 7 7 8 10 10 10 10 9 9 11 11 12 13 13 13 12 12 12 12 11 10 9 8 7 7 8 8 8 9 10 9 9 11 11 10 10 12 13 13 14 14 14 15 15 15 15 15 17 18
4 6 5 4 6 7 6 5 6 5 4 5 8 7 5 4 4 6 6 7 8 8 7 7 6 4 4 5 6 8 9 9 9 9 8 8 8 9 10 12 12 12 11 11 11 12 13 13 14 15 14 12 12 11 11 11 10 9 8 8 8 8 9 9 8 8 8 9 9 11 11 10 11 12 13 13 14 15 15 14 13 13 13 14 16 17
7 7 6 6 7 5 2 2 5 5 4 2 6 5 4 4 5 6 6 7 8 8 8 8 8 7 6 6 7 8 8 8 9 9 8 7 9 11 12 13 13 13 13 13 13 14 14 14 14 14 14 12 11 11 11 10 9 8 8 8 8 9 9 9 8 8 9 9 9 10 11 11 11 13 13 14 14 14 15 14 12 12 13 14 15 16
Wind_Direction
189 191 182 189 173 159 162 169 6 46 94 105 120 142 148 131 116 115 123 145 189 136 112 112 113 121 128 126 125 133 147 151 150 151 155 157 153 144 140 141 135 119 109 112 106 95 90 90 87 83 83 83 81 78 79 79 78 78 79 77 72 65 61 60 59 57 55 54 54 54 55 55 53 51 51 49 46 43 39 33 30 28 25 25 26 26
216 224 140 73 50 129 130 113 49 83 109 112 129 142 128 116 115 125 132 137 192 149 117 124 120 120 128 131 136 148 160 167 168 169 170 167 156 146 156 156 141 128 124 121 109 99 95 91 90 85 84 87 86 84 83 82 82 81 80 78 74 70 64 61 59 57 54 49 47 50 51 51 52 49 46 47 44 41 38 31 26 24 20 21 23 24
216 197 85 82 100 117 125 126 93 102 122 120 136 147 120 122 125 122 138 144 181 167 136 141 132 126 137 140 147 162 168 166 174 180 171 168 161 159 173 164 151 145 138 130 115 106 98 91 89 87 89 92 94 96 93 91 89 85 81 78 77 74 68 62 57 55 56 53 52 54 52 51 53 51 48 47 45 41 39 33 29 29 26 25 25 25
211 74 63 113 160 153 154 157 134 126 138 133 155 150 125 146 149 133 155 159 162 138 141 151 141 133 148 150 155 172 174 164 177 186 173 176 174 174 184 171 164 157 141 137 126 113 105 98 92 90 98 105 106 106 101 95 91 84 80 80 80 76 69 62 56 54 55 59 62 62 60 56 53 49 47 48 47 43 39 37 37 37 35 34 32 30
76 52 22 186 189 196 181 177 185 193 148 145 164 120 136 164 148 124 146 148 129 125 148 160 148 146 166 171 169 171 182 180 184 190 184 189 191 190 193 182 174 162 145 141 133 124 116 103 92 92 102 110 109 103 97 91 85 82 82 82 80 73 66 59 52 51 53 56 59 58 56 53 50 47 45 44 41 39 39 39 39 38 36 36 35 32
72 49 338 199 196 202 197 191 201 242 191 144 41 108 148 161 128 127 144 145 135 140 170 182 169 155 172 192 183 169 183 189 188 195 192 187 192 199 198 187 179 166 149 139 135 130 120 108 101 103 107 108 102 95 92 88 84 86 86 83 76 68 62 56 51 49 52 55 54 52 48 44 44 46 46 42 36 34 38 38 38 36 32 31 31 29
58 45 25 198 191 190 203 193 155 262 241 147 94 118 141 143 132 141 155 163 148 136 178 201 222 135 166 199 194 179 192 190 187 198 198 188 188 197 197 183 181 174 156 145 142 134 126 125 124 121 117 108 101 99 99 96 95 94 89 80 72 65 59 53 50 50 54 57 56 54 52 47 46 49 49 46 40 38 40 37 35 33 30 28 27 25
47 67 95 153 178 182 197 164 108 266 271 113 127 149 143 141 145 154 173 195 124 112 165 203 243 247 175 192 183 183 201 197 194 200 200 196 193 195 193 183 186 182 161 152 150 145 143 143 135 126 121 113 110 113 110 106 104 100 89 79 70 64 58 52 53 54 55 58 57 55 53 51 49 48 48 48 43 40 39 35 31 29 29 28 25 23
45 53 61 110 190 170 107 66 75 93 34 100 150 161 145 146 155 168 197 209 147 149 171 193 223 238 159 160 169 182 204 209 204 204 202 200 195 192 192 189 190 181 162 155 150 148 147 146 138 126 122 119 121 121 114 110 110 104 92 80 71 63 58 56 56 58 57 57 57 55 51 49 45 42 41 39 36 31 27 25 22 20 20 22 21 19
55 40 37 7 326 101 86 75 73 61 83 127 152 146 137 153 167 187 211 185 174 207 192 174 200 234 147 154 170 185 209 216 208 204 204 200 195 194 193 193 191 179 167 157 145 144 143 142 141 133 132 134 133 134 130 124 119 112 102 86 76 65 60 59 57 59 58 56 55 52 49 44 39 34 30 27 25 20 15 13 13 13 11 12 12 11
88 71 51 28 46 93 97 86 65 81 121 141 152 143 144 160 172 197 207 188 199 215 166 160 187 230 188 163 174 188 212 216 206 200 199 196 196 194 191 194 193 180 169 159 149 146 144 146 152 154 156 156 157 163 161 154 150 144 141 135 104 79 66 61 58 58 57 55 52 48 44 39 33 26 21 18 15 11 11 11 11 10 8 8 7 6
114 110 95 82 96 117 109 92 84 118 137 149 158 151 154 162 172 198 190 197 225 198 134 151 179 216 245 156 170 188 202 211 206 198 192 192 193 190 189 194 192 181 169 164 162 153 151 158 168 176 182 183 185 186 183 181 183 185 191 192 165 108 77 62 56 54 54 52 47 41 35 30 26 20 14 11 9 8 10 11 10 9 6 6 5 3
105 92 108 121 144 169 136 108 108 135 155 174 174 165 177 168 175 202 190 196 219 143 127 159 186 221 243 91 148 187 193 201 208 201 191 188 187 185 187 192 188 180 175 173 172 162 161 172 180 188 196 197 196 195 193 193 194 196 203 207 189 119 81 53 49 48 50 51 42 32 24 19 16 13 8 6 8 9 9 8 9 7 4 3 1 359
115 112 144 150 157 209 238 135 140 165 185 194 178 181 206 177 187 199 180 193 190 126 129 160 191 224 194 119 119 183 190 190 196 200 192 185 185 184 186 190 185 181 181 178 178 172 169 178 185 192 200 200 196 195 196 198 201 204 207 210 210 129 65 25 29 32 41 49 37 24 16 11 7 4 3 5 7 8 8 7 6 6 5 3 360 358
139 124 159 160 136 179 232 344 28 161 169 182 178 221 256 340 313 288 179 186 138 134 140 159 197 233 163 130 116 178 188 183 187 190 182 178 181 183 185 187 185 182 183 180 181 178 173 179 188 195 201 202 198 194 197 201 204 210 210 208 221 274 325 321 311 324 13 30 28 22 16 9 3 0 1 4 6 4 4 4 4 6 6 3 1 357
292 103 123 95 94 172 168 32 280 183 156 154 206 249 300 6 338 337 4 3 10 151 151 169 211 289 92 122 125 162 178 175 180 178 174 174 175 180 184 186 187 186 184 182 184 182 177 180 189 196 201 205 202 196 199 205 205 209 213 213 238 271 281 284 285 292 306 343 11 20 15 10 5 2 2 1 2 358 355 359 1 5 7 3 0 356
250 113 127 129 137 161 65 72 193 237 122 153 204 236 37 358 312 298 95 29 293 252 153 181 218 148 142 142 133 156 164 163 173 174 173 174 173 178 183 184 189 188 184 185 186 184 182 182 188 197 202 205 206 202 202 208 207 206 214 227 246 261 268 271 276 279 274 290 342 3 9 9 5 3 3 359 356 353 350 356 359 2 6 3 360 355
275 120 140 168 151 130 48 77 158 291 326 197 187 66 70 269 275 270 245 203 241 254 125 181 233 174 181 156 140 163 163 161 172 174 174 174 175 181 184 187 191 188 185 186 187 188 187 185 189 198 203 204 208 209 206 207 209 211 221 238 251 259 267 273 278 278 274 278 297 333 355 1 359 356 358 356 352 351 352 356 1 2 3 360 357 354
259 141 143 184 172 138 174 225 170 182 272 307 4 9 254 259 232 213 280 300 294 319 102 152 203 197 203 145 160 179 172 165 171 172 175 177 179 185 186 188 191 189 189 188 189 192 189 187 192 200 205 206 208 211 212 210 213 221 230 241 252 259 265 271 275 275 272 268 271 298 332 343 348 346 352 356 351 350 351 355 359 358 354 351 348 349
233 242 136 154 171 155 184 223 212 178 192 233 265 233 243 294 309 291 307 319 311 315 350 108 139 117 59 119 167 179 172 169 171 173 178 178 181 186 186 188 191 191 193 190 190 194 192 192 195 200 207 211 208 208 213 216 221 230 240 247 252 258 262 266 268 270 270 266 263 274 302 318 325 329 342 351 347 346 349 351 353 351 347 343 342 345
210 263 134 135 154 188 193 205 277 296 188 206 219 216 209 223 273 283 267 265 291 305 320 320 9 92 65 75 162 163 167 173 173 173 177 176 179 184 185 188 191 190 191 191 191 194 195 196 199 203 209 214 213 212 213 220 228 236 244 250 252 256 261 263 265 266 267 264 258 261 280 298 300 305 323 336 335 335 338 340 342 341 339 336 337 339
218 248 172 147 174 202 134 79 11 339 328 297 260 252 249 240 257 265 246 203 246 292 320 316 317 82 84 61 131 146 163 173 173 172 174 173 176 180 182 187 191 190 191 192 193 196 198 200 203 207 211 214 218 222 224 230 238 243 247 251 254 258 261 263 263 263 264 261 254 253 266 281 287 293 305 318 324 324 325 328 328 329 329 329 331 332
317 257 190 165 169 114 92 84 32 354 345 309 298 309 300 271 263 271 281 305 226 271 304 283 282 87 90 77 97 130 156 167 171 170 171 172 174 177 181 184 191 195 194 194 196 199 202 205 208 211 216 219 222 226 232 237 242 247 250 253 256 260 263 265 265 263 261 256 251 251 259 270 282 290 297 306 315 317 316 316 316 317 318 320 322 322
250 243 206 178 141 115 114 129 145 146 236 239 202 342 297 287 286 287 303 328 299 275 267 265 262 108 102 96 117 141 155 164 170 172 174 172 171 178 182 182 190 197 198 199 200 202 205 209 211 214 220 226 228 230 232 238 244 248 249 251 256 261 264 268 266 262 257 252 249 250 257 267 280 291 297 306 312 312 309 308 307 307 309 310 311 310
206 221 211 215 186 177 180 176 172 179 216 247 91 76 302 293 267 266 272 272 267 270 280 280 287 101 113 126 141 157 166 167 170 176 180 177 176 183 184 184 191 197 200 202 202 204 208 212 215 218 224 229 233 234 233 238 245 248 249 250 254 260 264 266 265 262 255 251 250 251 257 268 282 293 300 305 307 307 306 306 304 303 302 301 301 302
205 232 226 251 252 247 264 172 143 162 170 172 94 93 295 241 226 268 259 237 238 192 219 267 315 87 118 142 147 154 165 165 166 176 184 186 187 187 185 189 195 199 202 202 203 205 211 216 220 223 228 233 237 238 238 242 246 250 253 251 251 257 262 261 260 258 252 248 251 256 268 283 294 300 305 306 306 305 304 304 302 301 302 301 300 298
184 140 298 310 329 349 21 64 48 353 104 138 117 116 134 153 289 289 272 266 328 289 214 230 35 86 133 145 145 148 159 160 160 172 179 183 188 185 183 189 192 200 204 202 203 206 211 218 222 225 229 233 236 238 242 250 254 257 259 254 253 257 255 250 250 253 249 245 249 263 285 298 301 303 306 305 304 302 301 302 300 298 300 300 298 297
200 152 73 5 31 32 47 77 60 349 53 104 109 114 122 162 264 285 313 0 347 281 245 82 80 224 142 133 141 144 155 160 160 167 169 170 181 180 181 190 197 208 209 205 207 209 213 220 222 226 229 229 232 237 244 254 260 260 257 257 259 256 242 232 239 251 249 245 252 272 293 301 302 303 305 303 300 299 297 296 295 295 296 296 295 297
249 143 128 98 89 70 68 94 82 19 76 90 94 94 94 115 276 23 51 30 348 321 2 60 133 203 125 133 140 134 148 155 146 149 153 163 187 194 201 211 218 220 215 214 216 215 218 224 222 223 226 226 234 243 251 260 262 257 253 254 254 247 229 221 234 250 250 251 265 285 296 300 300 303 304 301 298 298 296 296 297 296 295 298 299 301
285 119 141 164 132 110 97 115 173 189 149 142 115 90 79 81 58 60 79 63 8 10 22 59 152 150 112 126 124 110 115 127 124 142 175 196 219 232 237 239 240 237 228 225 226 222 223 226 224 221 221 228 242 254 262 268 268 264 261 258 249 233 216 211 227 244 255 270 286 296 299 299 300 302 303 303 301 303 305 306 308 303 300 303 305 306
286 127 159 190 159 129 121 137 186 214 222 200 156 153 176 146 129 117 121 159 265 62 76 123 169 160 131 113 112 107 116 144 155 168 180 215 246 251 257 260 259 256 251 242 232 224 222 224 222 221 226 240 256 266 270 273 274 272 269 262 243 215 201 203 221 241 269 293 300 302 299 300 302 302 304 307 308 310 312 313 313 308 305 305 306 306
214 141 167 211 203 144 139 165 192 217 247 245 221 202 204 207 193 126 118 179 300 72 124 192 203 148 131 136 138 141 160 177 175 159 149 142 92 17 287 286 283 282 279 263 238 217 216 220 219 221 237 256 264 270 276 281 282 278 266 243 207 181 180 202 231 266 294 304 303 302 303 303 304 304 308 312 313 315 314 313 311 310 309 309 309 309
183 166 173 214 221 146 146 177 205 225 240 236 213 198 210 215 212 189 175 195 246 242 196 222 43 87 120 158 167 162 170 175 159 133 111 94 82 31 340 320 310 315 333 322 263 209 204 209 196 175 173 185 75 38 27 35 26 36 96 127 142 141 143 179 230 296 305 306 304 303 304 305 307 311 314 315 315 314 312 311 313 314 315 315 313 312
194 202 178 209 239 151 143 174 221 237 245 193 92 60 282 242 233 232 225 181 196 229 277 350 44 97 143 176 175 165 159 138 115 105 84 71 71 49 38 26 15 34 56 62 77 99 106 111 109 108 107 99 89 83 79 82 85 89 96 104 109 97 69 291 293 305 305 304 303 303 307 311 315 316 316 315 315 315 314 317 320 322 320 318 315 314
179 200 165 195 257 149 142 197 227 236 241 99 103 93 326 282 265 265 271 242 211 221 241 245 192 156 166 170 148 132 129 118 114 118 111 102 98 89 94 95 84 80 83 86 93 97 102 109 109 107 107 102 98 96 92 91 94 99 100 95 82 68 36 337 313 302 298 301 305 311 316 317 317 316 316 319 321 321 322 325 326 324 322 320 319 318
176 180 164 172 256 176 181 209 221 315 61 125 126 120 141 202 217 244 259 234 204 208 222 218 195 162 163 159 136 121 125 130 139 140 128 127 133 125 112 108 104 102 101 101 105 106 108 111 110 107 105 102 98 95 89 89 92 89 83 72 50 30 0 327 305 298 303 310 314 318 320 318 319 322 326 329 329 328 328 328 327 326 325 324 322 320
200 184 173 178 219 241 237 223 231 303 258 180 146 146 172 190 185 228 268 231 176 190 213 211 193 172 164 155 145 140 144 166 187 165 140 136 135 124 107 106 109 110 109 108 108 107 104 102 101 99 98 97 93 89 88 88 82 70 61 48 23 352 319 302 303 309 317 319 318 320 324 328 333 337 338 335 332 330 331 330 328 328 328 327 324 321
229 246 214 202 203 236 265 255 242 258 240 138 100 125 148 4 48 240 276 239 160 170 202 209 198 179 167 159 155 152 163 207 223 163 138 140 140 136 130 123 119 118 117 115 112 110 104 97 97 97 97 100 97 92 93 90 85 72 9 349 335 321 315 313 319 326 326 324 327 334 344 350 351 347 341 336 335 335 334 331 330 330 329 327 324 323
209 254 237 225 193 205 252 264 242 248 253 81 93 125 142 125 108 226 260 220 138 138 191 210 199 181 171 165 159 161 188 229 236 132 134 147 150 149 143 130 125 125 124 119 112 109 107 104 108 107 102 105 100 89 82 78 75 296 316 332 324 316 322 326 331 334 335 342 354 2 5 3 357 351 344 340 340 338 335 332 330 330 329 328 327 327
196 207 213 232 208 188 238 265 262 249 169 107 114 130 134 139 197 233 246 163 108 113 182 202 191 177 169 162 165 182 213 256 42 105 133 149 149 147 142 133 136 140 136 130 120 112 120 131 139 133 117 111 99 81 63 25 319 298 311 323 319 322 336 347 353 359 7 18 21 13 8 6 1 356 350 345 342 337 334 333 333 333 333 332 332 332
202 202 221 250 241 193 223 258 272 235 131 124 129 134 133 151 209 237 240 87 93 110 149 185 183 171 163 162 179 201 184 69 67 101 137 149 146 149 150 142 143 144 134 133 137 143 158 164 151 140 126 113 99 77 46 339 314 307 315 327 339 0 24 35 39 39 34 28 21 14 12 8 1 355 350 345 342 338 336 339 339 339 338 337 336 334
200 195 210 242 249 235 229 255 271 259 121 125 124 123 144 187 216 206 83 75 89 117 135 166 171 164 166 173 186 177 108 97 93 118 149 158 154 157 162 160 162 159 139 140 167 181 198 201 174 159 140 113 88 5 280 299 298 311 356 32 47 54 58 59 54 46 35 26 20 16 11 5 360 355 348 346 346 344 344 346 346 343 341 339 336 334
193 205 212 200 212 241 233 237 262 294 132 144 136 132 193 229 22 72 110 99 91 123 139 156 163 163 174 178 169 133 120 122 118 122 148 165 164 160 166 169 174 174 163 169 182 174 203 240 221 176 143 91 28 295 236 253 234 105 86 81 77 74 71 64 53 43 35 27 20 14 6 0 358 357 354 354 353 351 350 349 348 344 342 340 337 336
180 224 247 186 174 224 235 215 242 51 134 163 163 157 201 204 49 40 146 132 122 151 153 151 159 170 181 181 165 148 144 146 141 136 153 170 171 170 174 174 179 183 177 176 170 150 216 269 262 140 98 67 61 114 136 163 128 105 96 90 85 79 73 64 50 41 34 25 18 11 3 0 0 0 2 360 355 353 352 350 347 345 343 342 341 341
185 239 311 315 184 234 292 17 67 75 140 182 199 126 133 158 113 14 336 120 136 164 172 159 159 169 185 188 174 165 162 155 150 149 159 170 176 181 181 174 175 182 179 168 157 140 313 324 31 86 80 72 76 85 89 106 109 102 95 91 86 79 71 59 49 40 28 19 16 11 6 5 4 1 2 2 356 353 352 350 348 347 345 346 347 346
119 104 304 296 184 236 274 220 149 137 164 193 212 212 120 143 152 166 261 218 143 151 179 174 163 169 182 190 186 182 178 168 161 159 162 171 178 179 177 175 173 172 168 134 111 103 101 95 92 94 88 81 81 86 90 97 101 99 95 92 85 76 63 51 43 35 26 19 17 13 10 10 7 0 359 0 357 353 352 351 351 350 349 351 353 353
165 172 221 239 182 219 240 191 184 205 197 193 214 216 208 215 207 198 231 241 126 139 190 190 172 170 177 189 196 193 182 175 174 171 169 175 178 176 179 182 156 119 98 95 100 106 110 106 103 102 98 91 90 93 94 95 95 95 94 89 80 70 58 47 38 31 25 21 17 14 11 9 6 359 356 357 355 351 351 353 354 354 355 357 358 357
158 174 215 229 217 230 248 160 161 196 198 192 216 220 214 221 219 212 221 223 192 189 202 187 183 178 178 188 199 196 184 180 182 181 177 178 180 179 176 158 125 109 101 102 107 109 109 110 110 109 105 100 98 98 97 95 93 90 87 81 70 61 52 44 36 30 26 22 19 14 8 4 3 359 354 353 352 350 351 353 354 355 359 3 4 1
124 171 205 224 224 235 245 200 170 186 206 207 213 219 222 221 209 203 211 217 213 213 202 186 186 188 185 189 194 192 185 181 183 187 184 179 179 171 151 128 118 112 108 107 107 108 110 113 115 113 109 106 106 104 100 97 93 87 81 73 61 50 43 37 35 31 26 23 21 13 3 359 0 357 351 350 350 350 351 352 351 353 357 3 5 4
172 211 203 206 228 238 242 211 187 208 237 209 193 198 203 195 189 190 195 204 209 209 197 182 176 176 182 188 191 193 189 180 178 185 187 183 173 156 138 126 120 115 112 111 110 110 112 115 117 117 114 113 113 111 105 101 95 85 76 66 52 44 38 30 26 26 23 21 20 12 2 356 356 354 351 350 350 349 348 349 350 353 356 355 356 0
220 238 216 219 243 256 259 183 181 227 265 168 147 161 168 166 187 198 197 200 203 198 189 182 175 173 181 186 190 195 191 174 169 178 181 170 153 141 135 131 126 121 121 121 119 118 118 120 122 122 120 120 120 115 108 101 93 82 70 59 49 43 37 30 24 22 20 17 15 9 0 355 354 353 351 351 350 348 347 348 349 353 355 354 354 359